Regional Weather Roundup
Issued by NWS Upton, NY

Current Version | Previous Version | Graphics & Text | Print | Product List | Glossary Off
Versions: 1 2 3 4 5 6 7 8 9 10 11 12 13 14 15 16 17 18 19 20 21 22 23 24 25 26 27 28 29 30 31 32 33 34 35 36 37 38 39 40 41 42 43 44 45 46 47 48 49 50

000
ASUS41 KOKX 180608
RWROKX

REGIONAL WEATHER ROUNDUP
NATIONAL WEATHER SERVICE NEW YORK NY
200 AM EDT SAT APR 18 2015

NOTE: "FAIR" INDICATES FEW OR NO CLOUDS BELOW 12,000 FEET WITH NO
SIGNIFICANT WEATHER AND/OR OBSTRUCTIONS TO VISIBILITY.

NYZ071-072-176-178-NJZ106-104-180700-
NEW YORK CITY METRO AREA


CITY           SKY/WX    TMP DP  RH WIND       PRES   REMARKS
CENTRAL PARK   FAIR      63  46  54 CALM      30.00S
LAGUARDIA APRT FAIR      61  45  55 NW7       29.97S
KENNEDY INTL   FAIR      57  46  66 CALM      29.97F
NEWARK/LIBERTY FAIR      60  49  66 N3        29.97S
BRNX BOT. GARD   N/A     61  45  55 W3        29.98S
TETERBORO      FAIR      55  46  71 SW3       29.97S
$$

NYZ177-179-078>081-180700-
LONG ISLAND NEW YORK

CITY           SKY/WX    TMP DP  RH WIND       PRES   REMARKS
FARMINGDALE    FAIR      59  48  67 N3        29.96F
ISLIP          FAIR      56  49  77 N7        29.94F
SHIRLEY        FAIR      53  50  89 N6        29.96S
WESTHAMPTON    FAIR      45  41  86 N6        29.97S
MONTAUK POINT    N/A     53  50  89 W3        29.95F
$$

NYZ052-065-067-180700-
HUDSON VALLEY

CITY           SKY/WX    TMP DP  RH WIND       PRES   REMARKS
WHITE PLAINS   FAIR      54  45  71 NW3       29.96F
NEWBURGH       CLEAR     52  45  76 CALM      29.99F
MONTGOMERY     FAIR      46  42  86 W3        29.97F
POUGHKEEPSIE   FAIR      46  43  89 CALM      29.96F
ALBANY         FAIR      45  41  86 CALM      29.96F
$$

NJZ001-105-106-008-010-013-015-019>022-104-180700-
NEW JERSEY

CITY           SKY/WX    TMP DP  RH WIND       PRES   REMARKS
NEWARK/LIBERTY FAIR      60  49  66 N3        29.97S
TETERBORO      FAIR      55  46  71 SW3       29.97S
CALDWELL       FAIR      55  47  74 S3        29.98S
MORRISTOWN     FAIR      52  48  87 CALM      29.98S
SOMERVILLE     FAIR      49  46  90 CALM      29.96F
SUSSEX         FAIR      47  44  90 CALM      30.00F
ANDOVER          N/A     49  47  93 CALM      29.99F
TRENTON        FAIR      58  52  80 NW5       29.97S
MILLVILLE      CLOUDY    60  59  96 CALM      29.96F
ATLANTIC CITY  FAIR      62  58  86 CALM      29.96F
WRIGHTSTOWN    FAIR      52  52 100 NE1       29.94S
TOMS RIVER     MOCLDY    52  48  87 CALM      29.96S
BELMAR         FAIR      59  48  67 N5        29.97S
$$

PAZ047>061-062-071-180700-
EASTERN PENNSYLVANIA

CITY           SKY/WX    TMP DP  RH WIND       PRES   REMARKS
PHILADELPHIA   FAIR      60  56  86 W3        29.97F
ALLENTOWN      FAIR      50  47  89 NW3       29.99S
SCRANTON       FAIR      51  46  83 E5        30.00F
$$

CTZ002-004>006-009-010-012-RIZ004-006-007-MAZ004-011-015-180700-
SOUTHERN NEW ENGLAND
 IN CT

CITY           SKY/WX    TMP DP  RH WIND       PRES   REMARKS
BRADLEY INTL   FAIR      54  45  71 SE3       29.95F
HARTFORD       FAIR      47  44  90 CALM      29.96F
DANBURY        FAIR      43  40  89 SW3       29.98F
WTRBRY/OXFORD  FAIR      50  43  76 N9        29.98F
BRIDGEPORT     FAIR      53  48  83 CALM      29.96S
MERIDEN        FAIR      44  42  93 CALM      29.97F FOG
NEW HAVEN      FAIR      55  49  80 N5        29.96F
CHESTER        FAIR      55  46  71 NW8       29.96F
GROTON         NOT AVBL
WILLIMANTIC    FAIR      47  43  86 CALM      29.95F

 IN RI

CITY           SKY/WX    TMP DP  RH WIND       PRES   REMARKS
PROVIDENCE     FAIR      54  47  77 W7        29.93F
BLOCK ISLAND   FAIR      52  48  87 NW8       29.94F
WESTERLY       FAIR      54  50  86 NW7       29.94F

 IN MA

CITY           SKY/WX    TMP DP  RH WIND       PRES   REMARKS
BOSTON         FAIR      55  46  71 W14       29.92S
WORCESTER      FAIR      51  43  74 W14       29.93F
WESTFIELD      FAIR      51  44  77 E3        29.94F
PROVINCETOWN   FAIR      48  46  93 W9        29.91S
NANTUCKET      FAIR      48  47  96 W8        29.92S
$$

ANZ330-335-338-340-345-350-353-355-180700-
COASTAL MARINE OBSERVATIONS


STATION/POSITION TIME  SKY/WX   TEMP    WIND        PRES    VSBY  WAVE
                                AIR SEA DIR/SP/G                  HT/PER
                 (UTC)          (F)     (DEG/KT/KT) (MB)    (MI)  (FT/S)
NY HARB ENTRANCE 0550            53 47  360/  4/  4 1014.6          3/10
4S FIRE IS       0503               44                N/A           3/ 8
20S FIRE ISLAND  0450               44              1015.4          3/ 8
23SW MTP         0550                                 N/A           3/ 6
HUDSON CANYON    NOT AVBL
EXECUTION ROCKS  NOT AVBL
WESTERN LI SOUND NOT AVBL
CENTRAL LI SOUND NOT AVBL
EASTERN LI SOUND 0500            45     280/  8/  8   N/A
ROBBINS REEF     0500            64     360/  8/  8 1013.9
$$


>>>>>>>>>>>>>>>>>>>>>>>>>>>> KEY <<<<<<<<<<<<<<<<<<<<<<<<<<<
>                                                          <
>     SKY/WX - SKY CONDITION/PRESENT WEATHER               <
>     TMP    - TEMPERATURE IN FAHRENHEIT                   <
>     DP     - DEWPOINT IN FAHRENHEIT                      <
>     RH     - RELATIVE HUMIDITY IN PERCENT                <
>     WIND   - DIRECTION AND SPEED IN MPH                  <
>     PRES   - MEAN SEA LEVEL PRESSURE IN INCHES OF HG     <
>     WCI    - WIND CHILL INDEX                            <
>     VSB    - VISIBILITY IN MILES                         <
>     HX     - HEAT INDEX                                  <
>     TC     - TEMPERATURE IN CELSIUS                      <
>     VRB    - VARIABLE WIND DIRECTION                     <
>                                                          <
>>>>>>>>>>>>>>>>>>>>>>>>>>>> KEY <<<<<<<<<<<<<<<<<<<<<<<<<<<





USA.gov is the U.S. government's official web portal to all federal, state and local government web resources and services.